This demonstration page uses our WeatherBlox Daily Observations layout. Learn more.

Left ArrowRight Arrow

Hourly Observations for June 23, 2018

Temp ( °F °C ) Dew Point ( °F °C ) Humidity (%) Winds ( mph kmh ) Pressure ( in mb ) Visibility ( mi km ) Precip ( " mm )
12:53 am 00:53 Cloudy with Nearby Thunderstorms 64 17.8 60 15.6 87 87 Calm 29.83 1010 10 16 0.00 0.00
1:29 am 01:29 Cloudy with Light Rain 63 17 61 16 94 94 S 7 11 29.85 1011 8 13 0.00 0.00
1:53 am 01:53 Cloudy with Light Rain 63 17.2 61 16.1 93 93 S 7 11 29.83 1010 10 16 0.06 1.52
2:53 am 02:53 Clear with Light Rain 62 16.7 61 16.1 96 96 ESE 10 17 29.76 1008 10 16 0.00 0.03
3:53 am 03:53 Clear with Light Rain 62 16.7 61 16.1 96 96 Calm 29.76 1008 10 16 0.00 0.03
4:31 am 04:31 Mostly Cloudy with Light Rain 63 17 61 16 94 94 SSE 6 9 29.74 1007 10 16 0.00 0.00
4:53 am 04:53 Partly Cloudy with Light Rain 62 16.7 61 16.1 96 96 S 5 7 29.79 1009 10 16 0.00 0.03
5:53 am 05:53 Clear with Light Rain 62 16.7 61 16.1 96 96 SW 3 6 29.80 1009 9 14 0.00 0.03
6:11 am 06:11 Partly Cloudy 63 17 61 16 94 94 SW 3 6 29.77 1008 8 13 0.00 0.00
6:20 am 06:20 Mostly Cloudy with Light Rain 63 17 61 16 94 94 SSW 6 9 29.77 1008 6 10 0.00 0.00
6:40 am 06:40 Cloudy with Light Rain 63 17 61 16 94 94 SW 5 7 29.77 1008 6 10 0.00 0.00
6:53 am 06:53 Cloudy with Light Rain 62 16.7 61 16.1 96 96 SW 7 11 29.81 1010 5 8 0.00 0.03
7:53 am 07:53 Cloudy with Light Rain 63 17.2 62 16.7 97 97 SW 7 11 29.79 1009 7 11 0.01 0.25
8:24 am 08:24 Partly Cloudy with Light Rain 64 18 63 17 94 94 SW 10 17 29.77 1008 10 16 0.00 0.00
8:53 am 08:53 Sunny with Light Rain 67 19.4 62 16.7 84 84 SW 9 15 29.79 1009 10 16 0.00 0.03
9:53 am 09:53 Sunny with Light Rain 71 21.7 61 16.1 71 71 WSW 8 13 29.78 1008 10 16 0.00 0.03
10:53 am 10:53 Sunny with Light Rain 76 24.4 60 15.6 58 58 W 16 26 29.77 1008 10 16 0.00 0.03
11:53 am 11:53 Sunny with Light Rain 79 26.1 60 15.6 52 52 W 12 19 29.76 1008 10 16 0.00 0.03
12:53 pm 12:53 Sunny with Light Rain 81 27.2 58 14.4 45 45 WNW 13 20 29.76 1008 10 16 0.00 0.00
1:53 pm 13:53 Sunny 83 28.3 59 15 44 44 WNW 13 20 29.75 1008 10 16 0.00 0.00
2:53 pm 14:53 Sunny 84 28.9 60 15.6 44 44 NW 10 17 29.74 1007 10 16 0.00 0.00
3:53 pm 15:53 Sunny 84 28.9 59 15 43 43 W 6 9 29.73 1007 10 16 0.00 0.00
4:53 pm 16:53 Mostly Cloudy 86 30 60 15.6 42 42 WSW 7 11 29.72 1007 10 16 0.00 0.00
5:53 pm 17:53 Sunny 85 29.4 61 16.1 45 45 SW 8 13 29.70 1006 10 16 0.00 0.00
6:53 pm 18:53 Sunny 85 29.4 59 15 42 42 SSW 9 15 29.70 1006 10 16 0.00 0.00
7:53 pm 19:53 Sunny 83 28.3 62 16.7 49 49 S 5 7 29.71 1006 10 16 0.00 0.00
8:53 pm 20:53 Sunny 79 26.1 63 17.2 58 58 S 8 13 29.72 1006 10 16 0.00 0.00
9:53 pm 21:53 Clear 75 23.9 63 17.2 66 66 S 7 11 29.73 1007 10 16 0.00 0.00
10:53 pm 22:53 Clear 74 23.3 63 17.2 69 69 S 6 9 29.72 1006 10 16 0.00 0.00
11:53 pm 23:53 Clear 70 21.1 64 17.8 82 82 ENE 12 19 29.75 1008 10 16 0.00 0.00

Powered by AerisWeather